This is the latest recevied weather packets stored in our database for station/object CE3TDM-10. If no packets are shown the sender has not sent any weather packets the latest 10 day(s).
| Time | Temp. | Humidity | Pressure | Rain* | Wind** | Luminosity | Snow |
|---|---|---|---|---|---|---|---|
| 1787720646 | 27.78° C | 34% | 918.7 hPa | - | - | - | - |
| 1787719746 | 28.33° C | 34% | 918.4 hPa | - | - | - | - |
| 1787717949 | 28.89° C | 35% | 919.3 hPa | - | - | - | - |
| 1787717046 | 28.89° C | 36% | 919.4 hPa | - | - | - | - |
| 1787716146 | 23.89° C | 41% | 918.7 hPa | - | - | - | - |
| 1787715406 | 23.33° C | 39% | 918.2 hPa | - | - | - | - |
| 1787715246 | 23.33° C | 39% | 918.2 hPa | - | - | - | - |
| 1787714346 | 23.33° C | 39% | 918.7 hPa | - | - | - | - |
| 1787713446 | 23.33° C | 39% | 918.4 hPa | - | - | - | - |
| 1787712546 | 23.33° C | 39% | 918.9 hPa | - | - | - | - |
| 1787711646 | 23.33° C | 39% | 919.3 hPa | - | - | - | - |
| 1787710746 | 23.33° C | 39% | 919.8 hPa | - | - | - | - |
| 1787709846 | 23.89° C | 39% | 919 hPa | - | - | - | - |
| 1787708946 | 23.89° C | 39% | 918.6 hPa | - | - | - | - |
| 1787708045 | 23.89° C | 39% | 920.8 hPa | - | - | - | - |
| 1787706245 | 23.89° C | 39% | 919.5 hPa | - | - | - | - |
| 1787705345 | 23.89° C | 39% | 919.2 hPa | - | - | - | - |
| 1787704445 | 23.89° C | 38% | 920 hPa | - | - | - | - |
| 1787702645 | 24.44° C | 39% | 919.3 hPa | - | - | - | - |
| 1787700845 | 24.44° C | 38% | 919 hPa | - | - | - | - |
| 1787699945 | 25° C | 38% | 918.5 hPa | - | - | - | - |
| 1787699045 | 25° C | 38% | 918.5 hPa | - | - | - | - |
| 1787697244 | 25° C | 38% | 918.9 hPa | - | - | - | - |
| 1787696344 | 25.56° C | 38% | 918.9 hPa | - | - | - | - |
| 1787694544 | 24.44° C | 38% | 918.7 hPa | - | - | - | - |
* Rain since midnight (hover to see other rain measurements)
** Current wind speed in m/s (hover to see current wind gust speed)